sat.trackr.live / text

‹ back to catalog

UNKNOWN

NORAD 82139

UNKNOWN UNKNOWN UNKNOWN

§ Identity

Operator
Country
Launch date
Launch site
Launch vehicle
Mass (kg)
RCS (m²)

External: N2YO · Heavens-Above

§ Orbital elements

Epoch: 2026-09-18T10:25:11.108640Z

Period
101.65 min
Inclination
99.0063°
Eccentricity
0.0079802
Mean motion
14.16673798 rev/d
Perigee alt
779.0 km
Apogee alt
894.2 km
Semi-major
7,214.8 km
B*
6.8916e-4
RAAN
337.6489°
Arg perigee
329.2338°
Mean anomaly
30.4170°
Rev number
51,970

§ Raw data

UNKNOWN1 82139U          26261.43415635  .00001374  00000+0  68916-3 0  99982 82139  99.0063 337.6489 0079802 329.2338  30.4170 14.16673798519707

JSON: /api/v1/satellites/82139 · /tle

For live sub-satellite position, see the globe view (requires WebGL).

§ Visibility from observer

Set your observer location to see the next 7 days of passes ≥ 10°. The values pass through the URL so the page stays shareable.

No JS? Fill the form by hand. The geolocation button needs JavaScript.